GW6476 Weather Reports


time (UTC)temp
F
wind
direction
speed
knots
gust
knots
rain 1hr
in
rain 24hr
in
rain mn
in
humidity
%
barometer
mb
20260507012629 66 185 3.5 7.0 0.00 0.00 0.00 59 1014.4
20260507012124 66 159 7.0 7.8 0.00 0.00 0.00 58 1014.2
20260507011623 67 159 5.2 7.0 0.00 0.00 0.00 58 1014.3
20260507011119 67 157 4.3 7.0 0.00 0.00 0.00 57 1014.3
20260507010614 67 166 4.3 7.8 0.00 0.00 0.00 57 1014.2
20260507010110 68 148 3.5 7.0 0.00 0.00 0.00 56 1014.1
20260507005608 68 298 2.6 7.0 0.00 0.00 0.00 55 1014.1
20260507005104 68 170 3.5 7.0 0.00 0.00 0.00 55 1014.2
20260507004601 69 155 1.7 7.8 0.00 0.00 0.00 55 1014.2
20260507004058 69 220 1.7 7.0 0.00 0.00 0.00 55 1014.1
20260507003554 69 245 2.6 6.1 0.00 0.00 0.00 55 1014.2
20260507003049 68 182 3.5 5.2 0.00 0.00 0.00 56 1014.2
20260507002546 68 167 4.3 7.0 0.00 0.00 0.00 55 1014.1
20260507002042 69 155 6.1 8.7 0.00 0.00 0.00 54 1014.2
20260507001539 68 147 7.8 11.3 0.00 0.00 0.00 55 1014.0
20260507001036 68 280 2.6 9.6 0.00 0.00 0.00 56 1014.1
20260507000532 69 136 5.2 9.6 0.00 0.00 0.00 55 1014.0
20260507000028 70 179 7.8 8.7 0.00 0.00 0.00 54 1013.8
20260506235526 69 138 1.7 6.1 0.00 0.00 0.00 55 1014.0
20260506235021 69 161 5.2 9.6 0.00 0.00 0.00 54 1014.1
20260506234519 70 174 4.3 11.3 0.00 0.00 0.00 53 1014.1
20260506234016 70 288 1.7 8.7 0.00 0.00 0.00 54 1014.0
20260506233512 70 164 7.0 11.3 0.00 0.00 0.00 54 1014.0
20260506233009 70 163 7.0 11.3 0.00 0.00 0.00 53 1014.0
20260506232505 70 156 6.1 12.2 0.00 0.00 0.00 53 1013.9
20260506232001 71 169 6.1 8.7 0.00 0.00 0.00 52 1014.0
20260506231459 71 169 6.1 9.6 0.00 0.00 0.00 52 1014.2
20260506230956 71 152 6.1 8.7 0.00 0.00 0.00 53 1014.0
20260506230452 72 177 4.3 6.1 0.00 0.00 0.00 51 1014.1
20260506225949 72 164 5.2 7.8 0.00 0.00 0.00 52 1014.2
20260506225446 72 303 3.5 9.6 0.00 0.00 0.00 53 1014.2
20260506224943 71 164 6.1 9.6 0.00 0.00 0.00 52 1014.2
20260506224440 73 184 5.2 11.3 0.00 0.00 0.00 50 1014.2
20260506223936 72 183 2.6 7.8 0.00 0.00 0.00 51 1014.2
20260506223432 73 228 3.5 7.0 0.00 0.00 0.00 50 1014.2
20260506222930 73 157 7.8 9.6 0.00 0.00 0.00 50 1014.2
20260506222426 74 170 3.5 6.1 0.00 0.00 0.00 50 1014.5
20260506221923 74 152 3.5 5.2 0.00 0.00 0.00 49 1014.5
20260506221420 74 241 0.9 5.2 0.00 0.00 0.00 49 1014.8
20260506220918 73 166 1.7 8.7 0.00 0.00 0.00 52 1014.5
20260506220413 73 170 3.5 7.8 0.00 0.00 0.00 51 1014.7
20260506215910 73 215 4.3 6.1 0.00 0.00 0.00 50 1014.7
20260506215406 74 152 7.0 9.6 0.00 0.00 0.00 48 1014.7
20260506214902 75 136 4.3 7.8 0.00 0.00 0.00 48 1014.7
20260506214359 73 226 0.9 2.6 0.00 0.00 0.00 50 1014.8
20260506213857 74 164 6.1 8.7 0.00 0.00 0.00 48 1014.9
20260506213354 74 162 2.6 7.0 0.00 0.00 0.00 49 1015.0
20260506212851 73 165 3.5 7.0 0.00 0.00 0.00 50 1015.0
20260506212347 73 175 6.1 7.8 0.00 0.00 0.00 49 1015.1
20260506211842 74 124 2.6 5.2 0.00 0.00 0.00 49 1015.1
20260506211338 73 206 6.1 9.6 0.00 0.00 0.00 49 1015.4
20260506210836 75 175 4.3 7.8 0.00 0.00 0.00 48 1015.3
20260506210332 75 130 3.5 5.2 0.00 0.00 0.00 47 1015.3
20260506205830 75 185 4.3 5.2 0.00 0.00 0.00 47 1015.3
20260506205325 73 339 3.5 6.1 0.00 0.00 0.00 48 1015.5
20260506204822 75 137 5.2 7.8 0.00 0.00 0.00 47 1015.4
20260506204320 73 194 0.9 6.1 0.00 0.00 0.00 49 1015.4
20260506203817 74 313 3.5 11.3 0.00 0.00 0.00 48 1015.4
20260506203314 75 242 2.6 5.2 0.00 0.00 0.00 47 1015.5
20260506202811 74 308 1.7 2.6 0.00 0.00 0.00 47 1015.4
20260506202308 73 182 1.7 3.5 0.00 0.00 0.00 49 1015.7
20260506201804 72 119 2.6 6.1 0.00 0.00 0.00 49 1015.7
20260506201302 73 182 3.5 6.1 0.00 0.00 0.00 48 1015.8
20260506200759 72 120 2.6 5.2 0.00 0.00 0.00 49 1015.9
20260506200255 73 2 0.9 7.0 0.00 0.00 0.00 48 1015.8
20260506195751 73 162 1.7 2.6 0.00 0.00 0.00 49 1015.7
20260506195248 71 332 0.0 3.5 0.00 0.00 0.00 51 1015.9
20260506194746 71 49 0.0 1.7 0.00 0.00 0.00 52 1015.9
20260506194242 73 145 5.2 7.0 0.00 0.00 0.00 48 1016.0
20260506193740 72 300 1.7 2.6 0.00 0.00 0.00 51 1016.1
20260506193236 72 159 4.3 5.2 0.00 0.00 0.00 50 1016.2
20260506192732 70 213 1.7 3.5 0.00 0.00 0.00 52 1016.2
20260506192229 70 343 1.7 5.2 0.00 0.00 0.00 52 1016.2
20260506191726 71 167 3.5 5.2 0.00 0.00 0.00 51 1016.4
20260506191222 72 218 2.6 5.2 0.00 0.00 0.00 51 1016.3
20260506190720 70 288 1.7 2.6 0.00 0.00 0.00 51 1016.5
20260506190216 70 218 1.7 2.6 0.00 0.00 0.00 53 1016.5
20260506185714 69 152 1.7 6.1 0.00 0.00 0.00 55 1016.5
20260506185209 70 276 0.9 3.5 0.00 0.00 0.00 53 1016.5
20260506184707 69 213 2.6 5.2 0.00 0.00 0.00 53 1016.6
20260506184204 69 263 3.5 3.5 0.00 0.00 0.00 53 1016.8
20260506183701 68 143 0.9 6.1 0.00 0.00 0.00 56 1016.7
20260506183157 69 128 2.6 3.5 0.00 0.00 0.00 53 1016.7
20260506182654 68 199 3.5 6.1 0.00 0.00 0.00 56 1016.7
20260506182151 68 178 4.3 6.1 0.00 0.00 0.00 56 1016.6
20260506181649 67 202 1.7 2.6 0.00 0.00 0.00 58 1016.8
20260506181146 67 169 4.3 6.1 0.00 0.00 0.00 56 1016.7
20260506180643 67 38 0.0 2.6 0.00 0.00 0.00 57 1016.9
20260506180139 68 211 4.3 7.8 0.00 0.00 0.00 57 1016.9
20260506175636 68 350 0.9 1.7 0.00 0.00 0.00 57 1016.8
20260506175132 67 165 1.7 6.1 0.00 0.00 0.00 58 1016.7
20260506174631 67 72 0.9 2.6 0.00 0.00 0.00 58 1016.8
20260506174127 66 263 1.7 5.2 0.00 0.00 0.00 59 1016.8
20260506173625 66 157 2.6 5.2 0.00 0.00 0.00 60 1016.7
20260506173122 66 39 0.9 5.2 0.00 0.00 0.00 60 1016.9
20260506172619 66 159 5.2 7.0 0.00 0.00 0.00 58 1016.8
20260506172115 66 167 3.5 3.5 0.00 0.00 0.00 60 1016.7
20260506171613 66 9 0.0 5.2 0.00 0.00 0.00 59 1016.9
20260506171110 65 207 2.6 3.5 0.00 0.00 0.00 60 1016.8
20260506170607 65 86 2.6 5.2 0.00 0.00 0.00 60 1016.7
20260506170105 66 228 1.7 2.6 0.00 0.00 0.00 60 1016.8
20260506165603 65 121 1.7 3.5 0.00 0.00 0.00 62 1016.7
20260506165059 64 59 1.7 5.2 0.00 0.00 0.00 63 1016.8
20260506164556 63 77 1.7 5.2 0.00 0.00 0.00 64 1016.7
20260506164054 63 137 2.6 3.5 0.00 0.00 0.00 63 1016.9
20260506163549 62 102 0.9 3.5 0.00 0.00 0.00 65 1016.7
20260506163045 62 157 4.3 5.2 0.00 0.00 0.00 66 1016.7
20260506162542 62 229 1.7 2.6 0.00 0.00 0.00 67 1016.8
20260506162039 60 231 1.7 2.6 0.00 0.00 0.00 69 1016.7
20260506161537 60 117 1.7 2.6 0.00 0.00 0.00 72 1016.7
20260506161033 60 153 0.9 1.7 0.00 0.00 0.00 70 1016.8
20260506160531 60 43 0.9 0.9 0.00 0.00 0.00 69 1016.7
20260506160028 60 38 0.0 0.9 0.00 0.00 0.00 69 1016.7
20260506155526 61 236 1.7 1.7 0.00 0.00 0.00 66 1016.8
20260506153657 62 15 0.9 1.7 0.00 0.00 0.00 65 1016.7
20260506153155 60 30 0.0 0.9 0.00 0.00 0.00 67 1016.8
20260506152651 59 48 0.0 1.7 0.00 0.00 0.00 69 1017.0
20260506152149 61 104 1.7 2.6 0.00 0.00 0.00 67 1016.7
20260506151648 61 37 0.0 0.9 0.00 0.00 0.00 66 1016.9
20260506151144 61 27 0.0 0.9 0.00 0.00 0.00 67 1016.7
20260506150641 60 48 0.0 1.7 0.00 0.00 0.00 68 1016.9
20260506150138 60 23 0.0 0.9 0.00 0.00 0.00 68 1016.9
20260506145635 60 28 0.0 0.9 0.00 0.00 0.00 69 1016.8
20260506145131 58 43 0.0 1.7 0.00 0.00 0.00 71 1017.0
20260506144629 58 41 0.9 1.7 0.00 0.00 0.00 73 1016.8
20260506144125 58 30 0.0 0.9 0.00 0.00 0.00 72 1016.9
20260506143624 56 20 0.0 0.0 0.00 0.00 0.00 74 1017.0
20260506143121 56 355 1.7 1.7 0.00 0.00 0.00 74 1016.9
20260506142619 55 15 0.9 0.9 0.00 0.00 0.00 73 1016.9
20260506142117 55 32 0.0 0.0 0.00 0.00 0.00 74 1017.0
20260506141614 54 32 0.0 0.9 0.00 0.00 0.00 76 1016.9
20260506141113 54 32 0.0 0.0 0.00 0.00 0.00 76 1016.7
20260506140610 53 33 0.0 0.9 0.00 0.00 0.00 78 1016.7
20260506140107 52 24 0.9 0.9 0.00 0.00 0.00 80 1016.6
20260506135604 51 23 0.0 0.9 0.00 0.00 0.00 83 1016.5
20260506135100 50 23 0.0 0.9 0.00 0.00 0.00 84 1016.6
20260506134557 49 12 0.0 0.9 0.00 0.00 0.00 86 1016.7
20260506134052 48 12 0.0 0.0 0.00 0.00 0.00 87 1016.6
20260506133550 48 12 0.0 0.0 0.00 0.00 0.00 88 1016.2
20260506133047 48 12 0.0 0.9 0.00 0.00 0.00 87 1016.5
20260506132544 48 14 0.0 0.9 0.00 0.00 0.00 87 1016.6
20260506132041 48 5 0.0 0.0 0.00 0.00 0.00 88 1016.5
20260506131538 48 9 0.0 0.0 0.00 0.00 0.00 88 1016.4
20260506131034 48 8 0.0 0.0 0.00 0.00 0.00 88 1016.5
20260506130532 48 8 0.0 0.0 0.00 0.00 0.00 88 1016.4
20260506130029 48 9 0.0 0.0 0.00 0.00 0.00 88 1016.0
20260506125527 47 8 0.0 0.0 0.00 0.00 0.00 88 1016.1
20260506125025 47 11 0.0 0.0 0.00 0.00 0.00 87 1016.1
20260506124522 48 14 0.0 0.0 0.00 0.00 0.00 87 1016.1
20260506124020 48 12 0.0 0.0 0.00 0.00 0.00 86 1016.1
20260506123518 48 15 0.0 0.0 0.00 0.00 0.00 86 1016.0
20260506123016 48 25 0.0 0.0 0.00 0.00 0.00 85 1016.1
20260506122512 48 21 0.0 0.9 0.00 0.00 0.00 85 1016.0
20260506122010 48 18 0.9 1.7 0.00 0.00 0.00 85 1016.0
20260506121507 48 6 2.6 3.5 0.00 0.00 0.00 86 1016.0
20260506121003 48 347 1.7 1.7 0.00 0.00 0.00 87 1015.9
20260506120501 47 8 1.7 2.6 0.00 0.00 0.00 88 1015.9
20260506115958 47 7 0.9 0.9 0.00 0.00 0.00 89 1016.1
20260506115456 46 21 0.0 0.0 0.00 0.00 0.00 89 1015.9
20260506114954 46 21 0.0 0.0 0.00 0.00 0.00 88 1015.8
20260506114451 47 15 0.0 0.0 0.00 0.00 0.00 89 1015.7
20260506113950 47 15 0.0 0.0 0.00 0.00 0.00 89 1015.9
20260506113448 47 15 0.0 0.0 0.00 0.00 0.00 88 1015.8
20260506112944 48 15 0.0 0.0 0.00 0.00 0.00 88 1015.7
20260506112442 50 15 0.0 0.0 0.00 0.00 0.00 88 1015.6
20260506111938 47 15 0.0 0.0 0.00 0.00 0.00 90 1015.7
20260506111437 47 15 0.0 0.0 0.00 0.00 0.00 87 1015.6
20260506110933 47 15 0.0 0.0 0.00 0.00 0.00 86 1015.5
20260506110432 48 15 0.0 0.0 0.00 0.00 0.00 86 1015.6
20260506105927 48 15 0.0 0.0 0.00 0.00 0.00 89 1015.6
20260506105424 48 15 0.0 0.0 0.00 0.00 0.00 86 1015.7
20260506104921 48 15 0.0 0.0 0.00 0.00 0.00 86 1015.9
20260506104419 48 15 0.0 0.0 0.00 0.00 0.00 86 1015.8
20260506103917 48 16 0.0 0.0 0.00 0.00 0.00 85 1015.8
20260506103414 48 16 0.0 0.9 0.00 0.00 0.00 86 1015.8
20260506102911 48 23 0.0 0.0 0.00 0.00 0.00 86 1015.7
20260506102409 48 23 0.0 0.0 0.00 0.00 0.00 86 1015.7
20260506101906 48 23 0.0 0.0 0.00 0.00 0.00 84 1015.5
20260506101402 48 23 0.0 0.0 0.00 0.00 0.00 84 1015.8
20260506100900 48 23 0.0 0.0 0.00 0.00 0.00 84 1015.6
20260506100358 49 23 0.0 0.0 0.00 0.00 0.00 83 1015.7
20260506095856 49 24 0.0 0.0 0.00 0.00 0.00 82 1015.8
20260506095354 49 24 0.0 0.9 0.00 0.00 0.00 82 1015.6
20260506094850 49 23 0.0 0.9 0.00 0.00 0.00 82 1015.8
20260506094349 50 40 0.0 0.9 0.00 0.00 0.00 81 1015.8
20260506093846 50 3 0.0 1.7 0.00 0.00 0.00 80 1015.7
20260506093344 50 347 1.7 1.7 0.00 0.00 0.00 81 1015.8
20260506092841 50 8 0.9 0.9 0.00 0.00 0.00 81 1015.9
20260506092339 50 18 0.0 0.0 0.00 0.00 0.00 81 1015.9
20260506091836 50 16 0.0 0.0 0.00 0.00 0.00 81 1015.8
20260506091333 50 14 0.0 0.0 0.00 0.00 0.00 81 1015.7
20260506090830 50 21 0.0 0.9 0.00 0.00 0.00 81 1015.7
20260506090328 50 11 0.0 0.9 0.00 0.00 0.00 81 1016.1
20260506085824 50 11 1.7 2.6 0.00 0.00 0.00 81 1016.1
20260506085321 50 14 0.9 1.7 0.00 0.00 0.00 81 1016.2
20260506084817 50 18 0.0 1.7 0.00 0.00 0.00 82 1016.1
20260506084314 50 6 0.9 1.7 0.00 0.00 0.00 82 1016.3
20260506083811 50 11 0.9 0.9 0.00 0.00 0.00 82 1016.4
20260506083308 50 14 0.9 0.9 0.00 0.00 0.00 82 1016.4
20260506082806 50 16 0.0 0.0 0.00 0.00 0.00 82 1016.1
20260506082304 50 16 0.0 0.0 0.00 0.00 0.00 82 1016.1
20260506081759 50 16 0.0 0.0 0.00 0.00 0.00 80 1016.3
20260506081256 51 17 0.0 0.0 0.00 0.00 0.00 80 1016.3
20260506080754 51 6 0.9 0.9 0.00 0.00 0.00 79 1016.5
20260506080250 51 20 0.0 0.0 0.00 0.00 0.00 79 1016.2
20260506073234 51 10 0.0 0.9 0.00 0.00 0.00 80 1016.4
20260506072731 51 6 0.0 2.6 0.00 0.00 0.00 80 1016.3
20260506072229 51 358 0.0 0.9 0.00 0.00 0.00 80 1016.5
20260506071726 51 358 0.9 0.9 0.00 0.00 0.00 80 1016.4
20260506071224 50 1 1.7 1.7 0.00 0.00 0.00 82 1016.4
20260506070721 50 5 0.0 0.9 0.00 0.00 0.00 83 1016.2
20260506070218 50 16 0.0 0.0 0.00 0.00 0.00 84 1016.1
20260506062154 52 16 0.0 0.0 0.00 0.00 0.00 78 1015.6
20260506061650 53 16 0.0 0.9 0.00 0.00 0.00 77 1015.5
20260506061148 53 14 0.0 1.7 0.00 0.00 0.00 75 1015.5
20260506060647 53 358 1.7 2.6 0.00 0.00 0.00 76 1015.5
20260506060143 53 25 0.0 0.9 0.00 0.00 0.00 75 1015.5
20260506051115 53 9 0.0 0.0 0.00 0.00 0.00 75 1015.3
20260506050613 53 9 0.0 0.0 0.00 0.00 0.00 75 1015.1
20260506050110 55 9 0.0 0.0 0.00 0.00 0.00 79 1015.1
20260506045104 52 8 0.0 0.0 0.00 0.00 0.00 75 1014.9
20260506044602 52 8 0.0 0.0 0.00 0.00 0.00 75 1015.1
20260506044058 53 14 0.0 0.0 0.00 0.00 0.00 75 1014.9
20260506043555 53 14 0.0 0.0 0.00 0.00 0.00 77 1014.9
20260506043053 53 14 0.0 0.0 0.00 0.00 0.00 75 1014.8
20260506042552 54 14 0.0 0.0 0.00 0.00 0.00 74 1014.6
20260506042050 54 14 0.0 0.0 0.00 0.00 0.00 75 1014.6
20260506041548 54 14 0.0 0.0 0.00 0.00 0.00 75 1014.4
20260506041044 55 14 0.0 0.0 0.00 0.00 0.00 73 1014.4
20260506040542 55 14 0.0 0.0 0.00 0.00 0.00 75 1014.3
20260506040038 54 4 0.0 0.0 0.00 0.00 0.00 72 1014.3
20260506035535 55 358 0.0 0.0 0.00 0.00 0.00 71 1014.3
20260506035032 55 358 0.0 0.0 0.00 0.00 0.00 71 1014.2
20260506034530 56 358 0.0 0.0 0.00 0.00 0.00 70 1014.3
20260506034026 56 358 0.0 0.0 0.00 0.00 0.00 69 1014.0
20260506033524 57 30 0.0 0.0 0.00 0.00 0.00 68 1013.9
20260506033021 57 38 0.0 0.0 0.00 0.00 0.00 67 1014.0
20260506032518 58 42 0.0 0.9 0.00 0.00 0.00 66 1013.9
20260506032015 58 71 0.9 1.7 0.00 0.00 0.00 65 1013.9
20260506031512 58 82 0.9 1.7 0.00 0.00 0.00 64 1013.6
20260506031009 58 128 0.9 1.7 0.00 0.00 0.00 63 1013.6
20260506030507 59 5 0.0 0.9 0.00 0.00 0.00 63 1013.6
20260506030004 59 51 0.0 0.9 0.00 0.00 0.00 63 1013.6
20260506025501 59 59 0.0 0.9 0.00 0.00 0.00 63 1013.4
20260506024957 59 88 1.7 1.7 0.00 0.00 0.00 62 1013.2
20260506024454 59 91 0.9 1.7 0.00 0.00 0.00 63 1013.2
20260506023950 59 84 0.9 1.7 0.00 0.00 0.00 63 1013.2
20260506023447 59 96 0.9 1.7 0.00 0.00 0.00 63 1013.2
20260506022943 59 83 0.9 1.7 0.00 0.00 0.00 63 1013.1
20260506022441 59 55 0.0 1.7 0.00 0.00 0.00 63 1013.1
20260506021939 59 45 0.0 0.0 0.00 0.00 0.00 63 1013.1
20260506021436 59 156 1.7 2.6 0.00 0.00 0.00 63 1012.9
20260506020933 59 137 1.7 2.6 0.00 0.00 0.00 63 1012.8
20260506020431 59 188 1.7 3.5 0.00 0.00 0.00 63 1012.8
20260506015928 59 348 0.0 1.7 0.00 0.00 0.00 63 1012.8
20260506015426 59 151 2.6 5.2 0.00 0.00 0.00 62 1012.9
20260506014922 60 114 2.6 5.2 0.00 0.00 0.00 62 1012.9
20260506014419 60 166 1.7 2.6 0.00 0.00 0.00 61 1012.8
20260506013915 60 126 0.9 2.6 0.00 0.00 0.00 61 1012.9
20260506013414 60 143 1.7 3.5 0.00 0.00 0.00 62 1012.8